Location: Bayshore Village Mobile Home Park
(26.6945°N, 81.8642°W)
Time: 01:17:02
(UTC+00:00)

Hubble Space Telescope - Pass Details

Date: 27 October 2021
Orbit: 534 x 538 km, 28.5° (Epoch: 07 December)

Event Time Altitude Azimuth Distance (km) Brightness Sun altitude
Rises 23:33:28 0° 232° (SW) 2,657 5.5 -10.7°
Reaches altitude 10° 23:35:52 10° 222° (SW) 1,768 4.2 -11.3°
Maximum altitude 23:39:34 33° 158° (SSE) 905 1.8 -12.1°
Enters shadow 23:42:01 18° 103° (ESE) 1,359 2.3 -12.6°
